Location: Unspecified
(51.0950°N, 12.9690°E)
Time: 22:03:44
(UTC+00:00)

Cosmos 1455 - Pass Details

Date: 28 October 2021
Orbit: 496 x 520 km, 82.5° (Epoch: 01 December)

Event Time Altitude Azimuth Distance (km) Brightness Sun altitude
Rises 18:12:45 0° 201° (SSW) 2,616 5.9 -23.0°
Reaches altitude 10° 18:14:55 10° 206° (SSW) 1,730 5.1 -23.4°
Maximum altitude 18:18:38 52° 284° (WNW) 639 2.9 -23.9°
Drops below altitude 10° 18:22:20 10° 2° (N) 1,731 4.9 -24.5°
Enters shadow 18:22:34 - 2° (N) 1,824 5.0 -24.6°
